Location: Newark
(34.6283°N, 36.0776°E)
Time: 01:32:14
(UTC+00:00)

S-56A Canister/Altair - Pass Details

Date: 18 October 2019
Orbit: 634 x 2498 km, 38.9° (Epoch: 14 November)

Event Time Altitude Azimuth Distance (km) Brightness Sun altitude
Rises 03:15:21 0° 278° (W) 4,022 - -6.5°
Exits shadow 03:17:03 - 280° (W) 3,480 10.2 -6.2°
Reaches altitude 10° 03:17:45 10° 281° (W) 3,266 10.1 -6.0°
Maximum altitude 03:26:15 70° 5° (N) 1,782 9.4 -4.3°
Drops below altitude 10° 03:39:06 10° 89° (E) 4,780 13.4 -1.7°
Sets 03:43:22 0° 91° (E) 5,965 14.5 -0.8°
